軌道要素
Epoch 2012 Nov. 9.0 TT = JDT 2456240.5
T 2012 Nov. 27.71310 TT Rudenko
q 3.4047660 (2000.0) P Q
n 0.10073118 Peri. 206.85683 -0.04756439 -0.99713822
a 4.5746736 Node 245.91850 +0.92762154 -0.02227559
e 0.2557358 Incl. 3.69035 +0.37048064 -0.07224386
P 9.78
From 60 observations 2011 Oct. 24-2021 Nov. 8, mean residual 0".4.
|